This is the latest recevied weather packets stored in our database for station/object HB9HFD-13. If no packets are shown the sender has not sent any weather packets the latest 10 day(s).
| Time | Temp. | Humidity | Pressure | Rain* | Wind** | Luminosity | Snow |
|---|---|---|---|---|---|---|---|
| 1787748900 | 26.67° C | 57% | 1013.3 hPa | 0 mm | - | - | - |
| 1787748599 | 26.67° C | 58% | 1013.2 hPa | 0 mm | - | - | - |
| 1787748299 | 26.67° C | 57% | 1013.4 hPa | 0 mm | - | - | - |
| 1787747999 | 27.22° C | 57% | 1013.4 hPa | 0 mm | - | - | - |
| 1787747699 | 27.22° C | 57% | 1013.4 hPa | 0 mm | - | - | - |
| 1787747398 | 27.22° C | 57% | 1013.4 hPa | 0 mm | - | - | - |
| 1787747098 | 26.67° C | 58% | 1013.5 hPa | 0 mm | - | - | - |
| 1787746798 | 27.22° C | 57% | 1013.7 hPa | 0 mm | - | - | - |
| 1787746498 | 27.22° C | 57% | 1013.7 hPa | 0 mm | - | - | - |
| 1787746197 | 27.22° C | 56% | 1013.6 hPa | 0 mm | - | - | - |
| 1787745897 | 27.22° C | 54% | 1013.8 hPa | 0 mm | - | - | - |
| 1787745597 | 27.22° C | 53% | 1013.7 hPa | 0 mm | - | - | - |
| 1787745296 | 27.22° C | 54% | 1013.7 hPa | 0 mm | - | - | - |
| 1787744996 | 27.22° C | 52% | 1013.8 hPa | 0 mm | - | - | - |
| 1787744696 | 27.22° C | 52% | 1013.9 hPa | 0 mm | - | - | - |
| 1787744396 | 27.22° C | 54% | 1013.8 hPa | 0 mm | - | - | - |
| 1787744095 | 26.67° C | 54% | 1014 hPa | 0 mm | - | - | - |
| 1787743795 | 26.67° C | 50% | 1014 hPa | 0 mm | - | - | - |
| 1787743495 | 27.22° C | 52% | 1014.1 hPa | 0 mm | - | - | - |
| 1787743194 | 26.67° C | 55% | 1014.2 hPa | 0 mm | - | - | - |
| 1787742894 | 26.67° C | 55% | 1014.4 hPa | 0 mm | - | - | - |
| 1787742594 | 26.11° C | 55% | 1014.4 hPa | 0 mm | - | - | - |
| 1787742294 | 26.67° C | 57% | 1014.5 hPa | 0 mm | - | - | - |
| 1787741993 | 26.67° C | 54% | 1014.5 hPa | 0 mm | - | - | - |
| 1787741693 | 26.67° C | 58% | 1014.5 hPa | 0 mm | - | - | - |
* Rain latest hour (hover to see other rain measurements)
** Current wind speed in m/s (hover to see current wind gust speed)